Hourly Data Report for July 01, 2017

PITT MEADOWS CS
BRITISH COLUMBIA

49°12'29.964" N
122°41'24.076" W
5.00 m
1106178
71775
WMM

Download Data

Hourly Data (July 2017)
Hourly Data Report for July 1, 2017
TIME
LST
Temp Definition
°C
Dew Point Definition
°C
Rel Hum Definition
%
Precip. Amount Definition
mm

Wind Dir Definition
10's deg

Wind Spd Definition
km/h
Visibility Definition
km
Stn Press Definition
kPa
Hmdx Definition


Wind Chill Definition


Weather Definition


00:00 17.2 13.7 80 0.0 0 1   101.34     LegendNANA
01:00 16.4 13.4 83 0.0 9 4   101.35     LegendNANA
02:00 15.8 12.1 79 0.0 16 5   101.39     LegendNANA
03:00 14.9 11.1 78 0.0 14 3   101.45     LegendNANA
04:00 14.1 10.4 79 0.0 15 4   101.55     LegendNANA
05:00 14.0 10.0 77 0.0 10 8   101.63     LegendNANA
06:00 14.7 10.0 73 0.0 10 10   101.71     LegendNANA
07:00 15.3 10.2 72 0.0 13 12   101.76     LegendNANA
08:00 15.7 10.6 72 0.0 15 8   101.79     LegendNANA
09:00 17.3 10.6 65 0.0 16 8   101.78     LegendNANA
10:00 17.7 10.6 63 0.0 14 8   101.76     LegendNANA
11:00 19.0 11.3 61 0.0 16 5   101.76     LegendNANA
12:00 20.2 11.5 57 0.0 22 10   101.72     LegendNANA
13:00 21.2 11.6 54 0.0 21 8   101.73     LegendNANA
14:00 21.3 11.1 52 0.0 21 8   101.72     LegendNANA
15:00 21.2 11.2 53 0.0 24 10   101.68     LegendNANA
16:00 21.7 12.3 55 0.0 22 8   101.65     LegendNANA
17:00 21.3 11.5 54 0.0 20 7   101.63     LegendNANA
18:00 20.9 11.1 54 0.0 22 7   101.63     LegendNANA
19:00 20.1 10.6 55 0.0 22 6   101.62     LegendNANA
20:00 18.9 11.0 60 0.0 25 3   101.61     LegendNANA
21:00 17.4 11.7 69 0.0 13 4   101.63     LegendNANA
22:00 15.9 11.0 73 0.0 10 6   101.65     LegendNANA
23:00 15.4 11.3 76 0.0 9 5   101.67     LegendNANA

Notes on Data Quality.

Legend

  • E = Estimated
  • M = Missing
  • NA = Not Available*
  • [empty] = Indicates an unobserved value
Date modified: